This is the latest recevied weather packets stored in our database for station/object OE3MHU-13. If no packets are shown the sender has not sent any weather packets the latest 10 day(s).
| Time | Temp. | Humidity | Pressure | Rain* | Wind** | Luminosity | Snow |
|---|---|---|---|---|---|---|---|
| 1787400830 | 25° C | 45% | 1017.8 hPa | 0 mm | - | - | - |
| 1787400527 | 24.44° C | 45% | 1017.7 hPa | 0 mm | - | - | - |
| 1787400227 | 25° C | 45% | 1017.7 hPa | 0 mm | - | - | - |
| 1787399926 | 25° C | 44% | 1017.6 hPa | 0 mm | - | - | - |
| 1787399625 | 24.44° C | 47% | 1017.7 hPa | 0 mm | - | - | - |
| 1787399323 | 23.89° C | 46% | 1017.6 hPa | 0 mm | - | - | - |
| 1787399021 | 23.89° C | 47% | 1017.7 hPa | 0 mm | - | - | - |
| 1787398721 | 23.89° C | 47% | 1017.7 hPa | 0 mm | - | - | - |
| 1787398420 | 23.89° C | 47% | 1017.8 hPa | 0 mm | - | - | - |
| 1787398119 | 24.44° C | 48% | 1017.8 hPa | 0 mm | - | - | - |
| 1787397818 | 24.44° C | 49% | 1017.7 hPa | 0 mm | - | - | - |
| 1787397519 | 24.44° C | 50% | 1017.7 hPa | 0 mm | - | - | - |
| 1787397222 | 23.89° C | 50% | 1017.5 hPa | 0 mm | - | - | - |
| 1787396920 | 23.89° C | 49% | 1017.5 hPa | 0 mm | - | - | - |
| 1787396618 | 23.89° C | 47% | 1017.5 hPa | 0 mm | - | - | - |
| 1787396315 | 24.44° C | 48% | 1017.6 hPa | 0 mm | - | - | - |
| 1787396014 | 23.89° C | 49% | 1017.6 hPa | 0 mm | - | - | - |
| 1787395715 | 24.44° C | 49% | 1017.5 hPa | 0 mm | - | - | - |
| 1787395418 | 23.89° C | 51% | 1017.5 hPa | 0 mm | - | - | - |
| 1787395114 | 23.89° C | 51% | 1017.4 hPa | 0 mm | - | - | - |
| 1787394815 | 23.89° C | 53% | 1017.5 hPa | 0 mm | - | - | - |
| 1787394511 | 23.89° C | 54% | 1017.6 hPa | 0 mm | - | - | - |
| 1787394212 | 23.33° C | 56% | 1017.6 hPa | 0 mm | - | - | - |
| 1787393906 | 23.33° C | 55% | 1017.6 hPa | 0 mm | - | - | - |
| 1787393600 | 23.33° C | 55% | 1017.7 hPa | 0 mm | - | - | - |
* Rain latest hour (hover to see other rain measurements)
** Current wind speed in m/s (hover to see current wind gust speed)